{"data":{"norad_id":63015,"intl_designator":"2025-032L","name":"STARLINK-11541 [DTC]","alt_names":[],"object_type":"PAYLOAD","status":"ACTIVE","operator":null,"country":"US","launch_date":"2025-02-15","launch_site_code":"AFETR","launch_vehicle":null,"mission":null,"orbit_class":"UNKNOWN","rcs_meters":null,"size_class":null,"mass_kg":null,"dimensions":null,"purposes":["comms"],"wikipedia_slug":null,"has_3d_model":false,"image_url":null,"decayed_at":null,"tle_current":{"epoch":"2026-09-21T21:15:44.326080Z","epoch_age_seconds":45342,"freshness":"FRESH","line1":"1 63015U 25032L   26264.88592970  .00205949  00000+0  15616-2 0  9994","line2":"2 63015  42.9999  92.4406 0005421 260.9504  99.0750 15.70940884 93088","mean_motion":15.70940884,"eccentricity":0.0005421,"inclination_deg":42.9999,"raan_deg":92.4406,"arg_perigee_deg":260.9504,"mean_anomaly_deg":99.075,"bstar":0.0015616,"rev_number":9308,"period_min":91.664811493951,"perigee_km":352.55604390999,"apogee_km":359.85741938384,"semimajor_km":6734.3437316469,"source":"CELESTRAK","updated_at":"2026-09-22T09:00:49.740747Z"}}}